Waarnemingen

Advertentie
Mijn weer
Brest, Frankrijk (7110): temperatuur & dauwpunt: 19.05.2019 21:00:00 - 25.05.2019 21:00:00 (CEST)Brest, Frankrijk (7110): temperatuur 5cm: 19.05.2019 21:00:00 - 25.05.2019 21:00:00 (CEST)Brest, Frankrijk (7110): temperatuur -20cm & temperatuur -100cm: 19.05.2019 21:00:00 - 25.05.2019 21:00:00 (CEST)Brest, Frankrijk (7110): windsnelheid & windstoten: 19.05.2019 21:00:00 - 25.05.2019 21:00:00 (CEST)Brest, Frankrijk (7110): windrichting: 19.05.2019 21:00:00 - 25.05.2019 21:00:00 (CEST)Brest, Frankrijk (7110): luchtdruk: 19.05.2019 21:00:00 - 25.05.2019 21:00:00 (CEST)Brest, Frankrijk (7110): zicht: 19.05.2019 21:00:00 - 25.05.2019 21:00:00 (CEST)Brest, Frankrijk (7110): Zonneschijnduur: 19.05.2019 21:00:00 - 25.05.2019 21:00:00 (CEST)Brest, Frankrijk (7110): neerslag: 19.05.2019 21:00:00 - 25.05.2019 21:00:00 (CEST)
Datum & Tijd tt [°C] td [°C] tt 5cm [°C] tt -20cm [°C] tt -100cm [°C] ff [km/u] ff [kn] fx [km/u] fx [kn] dd ppp [hPa] vv [km] sd [min] rr [mm]
25.05.2019 21:00:00 13,6 12,8 14,7 14,8 12,4 12 6 22 12 WNW 1022,7 1,8 0 0,0
25.05.2019 20:00:00 15,1 12,6 18,1 14,6 12,3 13 7 22 12 WNW 1022,3 19 0 0,0
25.05.2019 19:00:00 16,0 12,4 21,1 14,6 12,3 13 7 26 14 W 1022,4 32 2 0,0
25.05.2019 18:00:00 16,9 12,0 22,1 14,4 12,4 14 8 28 15 W 1022,4 20 6 0,0
25.05.2019 17:00:00 17,8 11,6 23,8 14,3 12,4 16 9 27 15 W 1022,3 15 47 0,0
25.05.2019 16:00:00 19,5 11,0 26,4 14,2 12,4 12 7 24 13 WNW 1022,3 21 15 0,0
25.05.2019 15:00:00 18,5 10,6 25,9 14,3 12,2 13 7 27 15 WNW 1022,5 19 53 0,0
25.05.2019 14:00:00 19,2 11,0 26,2 14,1 12,5 10 5 22 12 NW 1022,7 21 35 0,0
25.05.2019 13:00:00 18,3 11,1 25,3 13,9 12,2 12 6 21 12 NW 1022,9 22 41 0,0
25.05.2019 12:00:00 17,2 10,3 22,2 13,9 12,3 11 6 25 13 WNW 1023,0 16 33 0,0
25.05.2019 11:00:00 15,3 10,5 19,2 13,9 12,3 11 6 23 13 NW 1023,1 29 21 0,0
25.05.2019 10:00:00 14,2 11,0 17,3 13,9 12,3 9 5 21 11 NW 1023,0 20 0 0,0
25.05.2019 09:00:00 13,5 11,0 14,6 14,0 12,4 11 6 19 10 NW 1022,8 15 0 0,0
25.05.2019 08:00:00 12,9 11,5 12,5 14,0 12,3 10 5 15 8 WNW 1022,6 15 0 0,0
25.05.2019 07:00:00 12,5 11,1 12,1 14,0 12,3 8 4 16 8 NW 1022,4 13 0 0,0
25.05.2019 06:00:00 12,4 10,5 12,0 14,1 12,3 9 5 20 11 NW 1022,3 17 0 0,0
25.05.2019 05:00:00 12,5 9,7 12,0 14,1 12,3 8 4 22 12 NW 1022,2 35 0 0,0
25.05.2019 04:00:00 12,5 9,7 12,0 14,1 12,3 8 5 19 11 NW 1022,6 27 0 0,0
25.05.2019 03:00:00 12,5 9,9 11,9 14,1 12,3 11 6 18 10 NW 1022,8 26 0 0,0
25.05.2019 02:00:00 12,4 9,4 11,7 14,3 12,3 10 5 21 11 NW 1022,8 31 0 0,0
25.05.2019 01:00:00 12,4 9,9 11,6 14,2 12,3 13 7 24 13 NW 1022,8 28 0 0,0
25.05.2019 00:00:00 12,7 9,7 12,0 14,2 12,4 10 6 20 11 NNW 1022,8 36 0 0,0
24.05.2019 23:00:00 12,8 9,1 12,2 14,2 12,3 12 6 25 14 NW 1022,7 44 0 0,0
24.05.2019 22:00:00 12,8 9,2 12,5 14,1 12,3 14 7 30 16 NNW 1022,3 42 0 0,0
24.05.2019 21:00:00 13,1 8,8 13,6 14,1 12,3 17 9 31 17 NW 1022,2 30 0 0,0
24.05.2019 20:00:00 15,2 9,8 18,5 14,0 12,4 17 9 30 16 NNW 1021,7 15 15 0,0
24.05.2019 19:00:00 15,7 10,0 18,5 13,9 12,3 21 11 31 17 NNW 1021,8 12 7 0,0
24.05.2019 18:00:00 15,0 10,4 20,4 13,8 12,3 19 10 31 17 NNW 1022,0 14 7 0,0
24.05.2019 17:00:00 15,9 11,1 20,6 13,7 12,2 19 10 30 16 NNW 1021,9 9 0 0,0
24.05.2019 16:00:00 16,1 10,6 22,9 13,6 12,3 17 9 32 17 NNW 1021,8 8 32 0,0
24.05.2019 15:00:00 17,1 10,9 24,8 13,4 12,3 19 10 31 17 N 1021,6 7 44 0,0
24.05.2019 14:00:00 16,6 10,2 25,6 13,4 12,1 18 10 32 17 NNW 1021,7 7 31 0,0
24.05.2019 13:00:00 16,2 10,3 23,3 13,5 12,3 18 10 29 16 NNW 1021,8 8 9 0,0
24.05.2019 12:00:00 16,2 10,5 22,5 13,3 12,2 19 10 30 16 N 1021,7 10 36 0,0
24.05.2019 11:00:00 14,8 9,4 18,2 13,3 12,3 17 9 25 13 N 1021,5 8 2 0,0
24.05.2019 10:00:00 14,0 10,0 15,2 13,4 12,2 13 7 21 11 N 1021,6 9 3 0,0
24.05.2019 09:00:00 12,7 10,6 8,2 13,4 12,4 9 5 21 11 N 1021,1 8 55 0,2
24.05.2019 08:00:00 11,2 10,7 4,1 13,6 12,3 7 4 10 5 N 1020,8 6 54 0,0
24.05.2019 07:00:00 9,0 8,7 3,7 13,8 12,4 6 3 10 5 N 1020,8 2,1 0 0,0
24.05.2019 06:00:00 9,0 8,5 3,4 13,8 12,3 7 4 12 7 NNW 1020,3 4,0 0 0,0
24.05.2019 05:00:00 8,7 8,2 3,4 13,9 12,3 8 4 10 5 N 1019,7 0,1 0 0,0
24.05.2019 04:00:00 8,5 7,9 3,6 14,0 12,3 5 3 9 5 NNW 1019,6 0,1 0 0,0
24.05.2019 03:00:00 8,6 7,7 3,7 14,1 12,3 7 4 8 4 NNW 1019,8 0,1 0 0,0
24.05.2019 02:00:00 10,0 8,9 5,1 14,0 12,2 3 2 11 6 NNO 1019,5 0,5 0 0,0
24.05.2019 01:00:00 10,5 8,9 6,4 14,1 12,3 7 4 14 7 N 1019,5 4,7 0 0,0
24.05.2019 00:00:00 11,5 9,4 8,8 14,2 12,2 8 5 14 8 N 1019,3 11 0 0,0
23.05.2019 23:00:00 12,0 8,8 10,0 14,1 12,3 9 5 15 8 N 1019,3 17 0 0,0
23.05.2019 22:00:00 12,8 7,9 11,2 14,1 12,3 8 5 18 10 N 1018,7 29 0 0,0
23.05.2019 21:00:00 14,2 6,5 14,3 14,0 12,2 10 5 21 11 N 1018,3 20 6 0,0
23.05.2019 20:00:00 15,1 6,1 16,8 13,9 12,2 11 6 24 13 N 1018,2 9 2 0,0
23.05.2019 19:00:00 16,4 6,8 20,7 13,8 12,2 16 8 23 12 N 1017,9 11 2 0,0
23.05.2019 18:00:00 18,3 5,8 24,3 13,8 12,2 11 6 25 13 NNW 1017,8 14 50 0,0
23.05.2019 17:00:00 18,5 8,2 24,2 13,6 12,3 8 4 24 13 NW 1017,6 22 55 0,0
23.05.2019 16:00:00 18,7 9,2 24,9 13,6 12,2 10 5 20 11 NW 1017,8 16 21 0,0
23.05.2019 15:00:00 17,4 9,6 23,2 13,4 12,2 11 6 21 12 NNW 1018,0 31 0 0,0
23.05.2019 14:00:00 18,0 7,7 27,0 13,3 12,2 10 6 17 9 Z 1017,9 20 0 0,0
23.05.2019 13:00:00 18,5 8,5 23,6 13,4 12,2 5 3 13 7 W 1018,1 14 22 0,0
23.05.2019 12:00:00 17,7 8,8 24,0 13,3 12,2 6 3 13 7 W 1018,3 18 13 0,0
23.05.2019 11:00:00 16,2 10,3 16,3 13,4 12,2 5 3 10 5 WZW 1018,5 21 11 0,0
23.05.2019 10:00:00 13,9 9,3 16,2 13,4 12,2 3 1 8 4 NW 1018,5 14 8 0,0
23.05.2019 09:00:00 12,7 10,9 5,7 13,5 12,2 4 2 7 4 W 1018,4 15 55 0,0
23.05.2019 08:00:00 9,4 9,1 4,3 13,6 12,2 0 0 0 0 N 1018,2 0,1 16 0,0
23.05.2019 07:00:00 7,4 7,0 1,2 13,7 12,2 0 0 3 2 N 1018,0 0,3 4 0,0
23.05.2019 06:00:00 6,6 5,9 1,0 13,9 12,2 3 1 5 3 W 1018,3 0,6 0 0,0
23.05.2019 05:00:00 7,5 6,4 1,4 14,0 12,2 3 2 6 3 Z 1018,2 9 0 0,0
23.05.2019 04:00:00 7,7 6,2 1,7 14,1 12,2 3 2 11 6 Z 1018,5 7 0 0,0
23.05.2019 03:00:00 8,3 6,9 2,4 14,2 12,2 3 2 11 6 Z 1018,8 19 0 0,0
23.05.2019 02:00:00 8,8 6,9 3,5 14,3 12,2 4 2 5 3 ZO 1019,3 19 0 0,0
23.05.2019 01:00:00 9,6 7,0 5,3 14,3 12,2 0 0 4 2 N 1019,5 18 0 0,0
23.05.2019 00:00:00 9,5 6,0 6,1 14,3 12,2 0 0 6 3 N 1019,8 24 0 0,0
22.05.2019 23:00:00 11,5 6,0 7,1 14,4 12,2 4 2 13 7 W 1020,0 30 0 0,0
22.05.2019 22:00:00 12,6 5,3 9,1 14,3 12,2 8 4 14 7 W 1019,7 36 0 0,0
22.05.2019 21:00:00 14,7 6,0 12,9 14,2 12,1 9 5 20 11 ZZW 1019,4 10 1 0,0
22.05.2019 20:00:00 16,4 5,4 15,6 14,1 12,2 13 7 24 13 ZW 1019,4 7 41 0,0
22.05.2019 19:00:00 17,8 6,0 19,4 13,9 12,2 16 9 29 16 ZW 1019,4 2,3 60 0,0
22.05.2019 18:00:00 19,2 7,0 29,8 13,7 12,2 20 11 31 17 ZW 1019,5 2,5 60 0,0
22.05.2019 17:00:00 20,0 8,6 33,3 13,5 12,1 19 10 30 16 ZW 1019,6 3,0 60 0,0
22.05.2019 16:00:00 20,1 8,1 35,9 13,4 12,2 18 10 34 18 Z 1019,7 3,4 60 0,0
22.05.2019 15:00:00 20,2 8,8 34,5 13,3 12,2 19 11 31 17 Z 1020,0 6 60 0,0
22.05.2019 14:00:00 19,7 8,1 35,9 13,1 12,1 18 10 29 16 Z 1020,2 8 60 0,0
22.05.2019 13:00:00 19,0 9,2 32,2 13,0 12,1 16 9 26 14 Z 1020,5 13 60 0,0
22.05.2019 12:00:00 18,0 9,1 27,4 13,0 12,1 12 7 23 12 ZZW 1020,6 22 60 0,0
22.05.2019 11:00:00 17,4 8,8 20,9 13,1 12,1 10 5 19 11 Z 1020,6 22 60 0,0
22.05.2019 10:00:00 15,8 7,8 11,7 13,2 12,1 4 2 16 8 ZZW 1020,9 16 60 0,0
22.05.2019 09:00:00 12,3 8,2 4,6 13,3 12,1 8 5 15 8 Z 1020,8 20 60 0,0
22.05.2019 08:00:00 9,7 9,2 1,6 13,4 12,2 4 2 10 5 OZO 1020,4 16 53 0,0
22.05.2019 07:00:00 6,9 6,5 1,0 13,5 12,0 9 5 12 7 OZO 1020,5 14 0 0,0
22.05.2019 06:00:00 6,4 6,0 1,0 13,6 12,1 4 2 6 4 OZO 1020,7 11 0 0,0
22.05.2019 05:00:00 5,7 5,1 1,0 13,8 11,9 3 1 7 4 ZO 1021,1 0,1 0 0,0
22.05.2019 04:00:00 7,3 6,9 1,3 13,9 12,0 7 4 8 5 ONO 1021,2 0,2 0 0,0
22.05.2019 03:00:00 7,7 7,1 1,6 13,9 12,0 6 4 8 4 NO 1021,4 0,3 0 0,0
22.05.2019 02:00:00 6,8 5,9 2,1 14,0 12,0 4 2 8 4 NO 1021,7 0,2 0 0,0
22.05.2019 01:00:00 8,0 6,8 2,6 14,2 12,0 5 3 10 5 NO 1021,7 6 0 0,0
22.05.2019 00:00:00 9,5 7,6 3,3 14,3 12,2 8 4 11 6 NNO 1021,9 13 0 0,0
21.05.2019 23:00:00 9,9 6,8 4,6 14,2 12,1 6 3 11 6 NNO 1021,7 19 0 0,0
21.05.2019 22:00:00 12,2 7,1 7,8 14,2 12,1 9 5 16 9 NNO 1021,4 27 40 0,0
21.05.2019 21:00:00 14,1 6,9 11,8 14,1 12,1 10 5 23 12 NNO 1021,0 9 60 0,0
21.05.2019 20:00:00 15,7 8,2 16,1 13,9 12,0 13 7 23 13 N 1020,9 7 60 0,0
21.05.2019 19:00:00 16,4 8,4 18,6 13,9 12,1 13 7 26 14 N 1020,8 8 60 0,0
21.05.2019 18:00:00 17,7 9,1 27,6 13,8 11,9 16 8 24 13 N 1020,4 10 60 0,0
21.05.2019 17:00:00 18,2 9,5 22,7 13,7 11,9 12 6 26 14 NNW 1020,3 17 17 0,0
21.05.2019 16:00:00 17,8 9,4 25,5 13,5 12,0 11 6 23 13 NNW 1020,3 29 23 0,0
21.05.2019 15:00:00 17,6 8,4 25,4 13,4 12,0 8 4 18 10 N 1020,2 20 22 0,0
21.05.2019 14:00:00 18,0 9,1 28,2 13,3 12,1 12 7 21 12 N 1020,1 14 35 0,0
21.05.2019 13:00:00 18,3 8,8 23,1 13,2 12,0 7 4 17 9 NNW 1020,2 14 49 0,0
21.05.2019 12:00:00 16,8 10,4 25,2 13,2 12,1 6 3 14 7 ONO 1020,1 14 44 0,0
21.05.2019 11:00:00 13,3 11,4 16,9 13,4 11,9 8 4 16 9 ONO 1020,4 10 19 0,0
21.05.2019 10:00:00 11,4 10,8 13,9 13,4 12,0 8 4 12 7 NNO 1020,1 8 9 0,0
21.05.2019 09:00:00 11,0 10,7 8,6 13,5 12,1 4 2 9 5 NNO 1019,4 8 54 0,0
21.05.2019 08:00:00 8,1 7,8 5,1 13,7 12,0 0 0 4 2 N 1019,3 0,2 7 0,0
21.05.2019 07:00:00 6,7 6,3 4,9 13,7 12,0 4 2 5 3 ONO 1019,0 0,2 0 0,0
21.05.2019 06:00:00 7,5 7,2 6,2 13,6 11,9 0 0 6 3 N 1018,8 0,1 0 0,2
21.05.2019 05:00:00 7,5 7,2 5,8 13,8 11,9 3 2 6 3 WNW 1018,5 0,1 0 0,0
21.05.2019 04:00:00 7,8 7,4 6,0 14,0 12,0 2 1 6 4 Z 1018,4 0,1 0 0,0
21.05.2019 03:00:00 7,8 7,4 3,3 14,2 12,3 5 3 11 6 WZW 1018,2 0,1 0 0,0
21.05.2019 02:00:00 7,6 6,7 2,9 14,2 12,0 4 2 6 3 WZW 1018,4 0,1 0 0,0
21.05.2019 01:00:00 8,4 7,5 2,8 14,3 11,9 2 1 7 4 WZW 1018,4 0,2 0 0,0
21.05.2019 00:00:00 8,2 6,8 3,0 14,3 12,0 5 3 8 4 WNW 1018,3 2,2 0 0,0
20.05.2019 23:00:00 9,8 7,6 4,7 14,3 12,1 4 2 12 6 NNW 1017,9 31 0 0,0
20.05.2019 22:00:00 11,0 7,7 7,5 14,2 12,1 9 5 20 11 NNW 1017,3 49 21 0,0
20.05.2019 21:00:00 13,3 7,7 12,0 14,2 12,2 14 8 27 15 NNW 1016,9 11 60 0,0
20.05.2019 20:00:00 14,3 7,8 15,0 14,4 11,9 18 10 26 14 NW 1016,6 6 56 0,0
20.05.2019 19:00:00 14,9 7,9 18,1 14,0 12,0 17 9 28 15 NNW 1016,3 6 55 0,0
20.05.2019 18:00:00 14,7 7,7 21,6 13,8 11,7 18 10 29 16 NW 1016,1 6 60 0,0
20.05.2019 17:00:00 15,2 7,7 23,2 13,6 11,9 16 9 25 14 NNW 1015,8 7 60 0,0
20.05.2019 16:00:00 16,9 8,3 24,7 13,6 12,0 16 9 28 15 NW 1015,6 10 57 0,0
20.05.2019 15:00:00 16,8 8,5 30,3 13,5 11,9 13 7 24 13 NW 1015,5 14 47 0,0
20.05.2019 14:00:00 16,6 8,5 25,2 13,5 12,0 10 6 29 15 N 1015,4 15 44 0,0
20.05.2019 13:00:00 16,1 8,3 24,7 13,4 12,0 10 5 26 14 NNW 1015,4 13 46 0,0
20.05.2019 12:00:00 15,6 7,6 23,6 13,4 11,9 12 6 24 13 NNW 1015,3 14 52 0,0
20.05.2019 11:00:00 14,4 7,9 20,8 13,5 11,9 13 7 24 13 NNW 1015,3 14 39 0,0
20.05.2019 10:00:00 13,2 9,1 11,3 13,5 11,9 13 7 24 13 NNW 1015,0 20 43 0,0
20.05.2019 09:00:00 11,1 8,8 8,5 13,6 11,9 12 6 19 10 N 1014,8 11 38 0,0
20.05.2019 08:00:00 10,3 9,7 5,5 13,6 11,9 8 4 13 7 NNW 1014,2 16 25 0,0
20.05.2019 07:00:00 8,9 8,4 3,9 13,8 11,9 8 4 14 7 NW 1014,0 9 0 0,0
20.05.2019 06:00:00 9,1 8,5 4,8 13,9 11,9 5 3 9 5 NNW 1013,8 8 0 0,2
20.05.2019 05:00:00 9,3 8,8 4,4 14,0 11,9 7 4 11 6 NNW 1013,8 8 0 0,0
20.05.2019 04:00:00 8,7 8,1 3,9 14,1 11,9 5 3 13 7 NW 1013,9 5 0 0,0
20.05.2019 03:00:00 9,1 8,5 3,8 14,1 11,9 9 5 13 7 NW 1014,1 6 0 0,0
20.05.2019 02:00:00 9,2 8,3 4,7 14,1 11,9 8 5 13 7 NW 1014,1 4,8 0 0,0
20.05.2019 01:00:00 10,1 9,0 6,6 14,1 11,8 7 4 16 9 NW 1014,1 7 0 0,0
20.05.2019 00:00:00 10,7 9,3 8,6 14,1 12,0 10 5 18 10 NNW 1014,1 10 0 0,0
19.05.2019 23:00:00 11,3 9,7 10,0 14,2 11,9 12 7 24 13 NNW 1014,0 10 0 0,0
19.05.2019 22:00:00 12,1 9,5 11,7 14,2 11,9 11 6 23 12 NNW 1013,6 13 0 0,0
19.05.2019 21:00:00 12,5 9,1 14,1 14,5 12,0 14 8 27 15 NNW 1013,1 7 10 0,0

tt = temperatuur
td = dauwpunt
tt 5cm = temperatuur 5cm
tt -20cm = temperatuur -20cm
tt -100cm = temperatuur -100cm
ff = windsnelheid
fx = windstoten
dd = windrichting
ppp = luchtdruk
vv = zicht
sd = Zonneschijnduur
rr = neerslag

Weerstations in de omgeving